Weather in New York

United States     40°42′57″N   74°00′10″W
temp.,
°C
wind,
m/s
gust,
m/s
humid.,
%
clouds,
%
prec.,
mm/h
press.,
hPa
HPBL,
m
7 july, thu
thu723:00+26ne35521 0.0 1014545
02:00+24ne375737 0.0 1014409
05:00+23ene486698 0.0 1014450
08:00+24e466183 0.0 1016706
11:00+27ese445186 0.0 10161491
14:00+27sse545585 0.1 10151425
17:00+27sse545750 0.1 10151189
20:00+24sse44705 0.1 1015639
8 july, fri
fri823:00+23sse358216 0.0 1016475
02:00+22s238613 0.0 1016353
05:00+21sw128874 0.0 1016162
08:00+23ssw2274100 0.0 1016385
11:00+27ssw345775 0.0 1016942
14:00+29s5552100 0.0 10141057
17:00+27sse456097 0.0 1013390
20:00+25sse357098 0.0 1013263
9 july, sat
sat923:00+23ese2386100 2.6 1014170
02:00+22ene4789100 9.4 1015365
05:00+22ene2589100 0.4 1014331
08:00+21nne3784100 0.5 1015345
11:00+25ne456272 0.0 1015883
14:00+27ene345179 0.0 10151226
17:00+26sse545891 0.1 1015801
20:00+23sse336616 0.2 1016380
10 july, sun
sun1023:00+22se23732 0.0 1017289
02:00+21ne11765 0.0 1018218
05:00+20nne236893 0.0 1018297
08:00+20nne346398 0.0 1019581
11:00+23e225774 0.0 10201176
14:00+25sse544916 0.1 10191559
17:00+25sse545029 0.0 1018908
20:00+23s45560 0.0 1019484
11 july, mon
mon1123:00+22s46600 0.0 1018359
02:00+20sw25610 0.0 1019301
05:00+19ssw36660 0.0 1018302
08:00+21wsw34580 0.0 1020448
11:00+26ssw454331 0.0 10181015
14:00+27sse6741100 0.0 10161264
17:00+26sse89452 0.0 1014724
20:00+25s711547 0.0 1014551